Погода в Вонджу

Южная Корея     37°20′08″N   127°56′57″E
темп.,
°C
ветер,
м/с
пор.,
м/с
влажн.,
%
обл.,
%
осадки,
мм/ч
давл.,
гПа
погр.,
м
18 сентября, сб
сб1800:00+13всв11930 0.0 101316
03:00+12св11925 0.0 101313
06:00+12всв11945 0.0 101412
09:00+19вюв12715 0.0 1014415
12:00+24юв025784 0.0 10141403
15:00+23с116596 0.1 1014761
18:00+20ссз118020 0.1 101511
21:00+17в21880 0.1 101713
19 сентября, вс
вс1900:00+16в219344 0.0 101714
03:00+15в21957 0.0 101715
06:00+14в1195100 0.0 101714
09:00+20вюв117295 0.0 1018337
12:00+24ююв115014 0.0 10161225
15:00+25зюз014655 0.0 10151575
18:00+21сз117235 0.0 101611
21:00+17в21816 0.0 101716
20 сентября, пн
пн2000:00+16вюв22893 0.0 101636
03:00+15вюв22961 0.0 101549
06:00+14вюв229757 0.0 101645
09:00+19вюв236881 0.0 1015430
12:00+23вюв5753100 0.0 10131089
15:00+23юв3660100 0.0 10111093
18:00+19вюв387413 0.0 1011369
21:00+16вюв34898 0.0 101081
21 сентября, вт
вт2100:00+17в34888 0.0 1007121
03:00+16юв3498100 9.2 1006144
06:00+17ююз12100100 11.1 1006110
09:00+18ю1299100 18.4 1007113
12:00+20юз2491100 1.1 1006625
15:00+21зюз368597 2.6 1006929
18:00+18з26890 0.3 1007288
21:00+16зюз119863 0.4 100824
22 сентября, ср
ср2200:00+17юз129396 0.1 100962
03:00+17юз2292100 0.1 100870
06:00+16ююв239499 0.0 100873
09:00+17ю2796100 2.4 1009521
12:00+17ююз2797100 5.1 1009652
15:00+18ююз2798100 7.4 1008489
18:00+17з38937 1.3 1009408
21:00+14зюз279754 1.5 1012215